Regional Weather Roundup
Issued by NWS

Home | Current Version | Previous Version | Text Only | Print | Product List | Glossary Off
Versions: 1 2 3 4 5 6 7 8 9 10 11 12 13 14 15 16 17 18 19 20 21 22 23 24 25 26 27 28 29 30 31 32 33 34 35 36 37 38 39 40 41 42 43 44 45 46 47 48 49 50

000
ASUS43 KMKX 022000
RWRWI

WISCONSIN REGIONAL WEATHER ROUNDUP
NATIONAL WEATHER SERVICE MILWAUKEE/SULLIVAN WI
300 PM CDT MON MAY 02 2016

NOTE: "FAIR" INDICATES FEW OR NO CLOUDS BELOW 12,000 FEET WITH NO
SIGNIFICANT WEATHER AND/OR OBSTRUCTIONS TO VISIBILITY.

WIZ001-002-006>008-014>016-023>028-022100-
NORTHWEST WISCONSIN

CITY           SKY/WX    TMP DP  RH WIND       PRES   REMARKS
SUPERIOR ARPT  SUNNY     62  38  40 NE8       30.04F
ASHLAND        SUNNY     63  39  41 N10       30.06F
HAYWARD        SUNNY     64  31  28 S7        30.03F
SIREN          MOSUNNY   65  29  25 N7        30.04F
CUMBERLAND     SUNNY     61  30  31 N5        30.05F
RICE LAKE      SUNNY     62  28  28 W5        30.06F
CHETEK         PTSUNNY   64  38  38 N7        30.05F
LADYSMITH      MOSUNNY   62  33  34 SW3       30.07F
EAU CLAIRE     NOT AVBL
MENOMONIE      PTSUNNY   66  36  32 SW8       30.05F
NEW RICHMOND   PTSUNNY   63  31  30 NE3       30.06F
OSCEOLA        MOSUNNY   65  33  30 S5        30.07F
$$

WIZ003>005-009-010-017-018-022100-
NORTH CENTRAL WISCONSIN

CITY           SKY/WX    TMP DP  RH WIND       PRES   REMARKS
MANITOWISH WTR PTSUNNY   60  31  34 CALM      30.04F
ARBOR VITAE    PTSUNNY   60  29  30 N8        30.04F
WOODRUFF       PTSUNNY   60  29  30 N8        30.04F
RHINELANDER    CLOUDY    60  30  32 CALM      30.05F
EAGLE RIVER    MOSUNNY   58  26  28 CALM      30.04F
LAND O LAKES   MOSUNNY   60  27  28 NW3       30.05F
PHILLIPS       CLOUDY    59  32  36 CALM      30.04F
TOMAHAWK       PTSUNNY   60  30  32 NW5       30.05F
MEDFORD        MOSUNNY   59  35  41 SW5       30.05F
MERRILL        CLOUDY    60  33  36 NW6       30.05F
$$

WIZ029-030-035-036-043>047-022100-
CENTRAL WISCONSIN

CITY           SKY/WX    TMP DP  RH WIND       PRES   REMARKS
WAUSAU         PTSUNNY   64  32  30 NW6       30.02F
MOSINEE        PTSUNNY   61  32  33 W7        30.05F
MARSHFIELD     MOSUNNY   64  31  28 CALM      30.04F
STEVENS POINT  CLOUDY    60  30  32 NW3       30.05F
WAUPACA        SUNNY     66  28  23 NE8       30.05F
WAUTOMA        MOSUNNY   64  29  26 NE8       30.04F
WISC RAPIDS    MOSUNNY   63  29  27 VRB6      30.06F
CAMP DOUGLAS   NOT AVBL
$$

WIZ011>013-019>022-031-037>040-048>050-022100-
NORTHEAST WISCONSIN

CITY           SKY/WX    TMP DP  RH WIND       PRES   REMARKS
ANTIGO         MOSUNNY   60  33  37 CALM      30.05F
SHAWANO        SUNNY     66  29  25 NE5       30.04F
OCONTO         SUNNY     61  34  37 SE8       30.05F
STURGEON BAY   SUNNY     61  34  36 E8        30.08F
GREEN BAY      LGT RAIN  62  32  32 E6        30.05F
MANITOWOC      NOT AVBL
APPLETON       MOSUNNY   61  27  27 VRB5      30.04S
CLINTONVILLE   SUNNY     64  30  27 SE8       30.03F
OSHKOSH        SUNNY     61  32  33 NE8       30.05F
$$

WIZ032>034-041-042-053>061-022100-
SOUTHWEST WISCONSIN

CITY           SKY/WX    TMP DP  RH WIND       PRES   REMARKS
LA CROSSE      PTSUNNY   67  35  30 N6        30.05F
SPARTA         CLOUDY    63  35  35 CALM      30.07F
VIROQUA        PTSUNNY   62  35  36 N6        30.06F
BOSCOBEL       PTSUNNY   65  34  31 W5        30.06S
PRAIRIE DU CHI CLOUDY    60  34  37 SW6       30.06F
PLATTEVILLE    PTSUNNY   60  36  40 E3        30.07S
$$

WIZ056-057-062-063-064-067-068-022100-
SOUTH CENTRAL WISCONSIN

CITY           SKY/WX    TMP DP  RH WIND       PRES   REMARKS
REEDSBURG      CLOUDY    61  34  36 NE3       30.05F
BARABOO/DELLS  PTSUNNY   62  29  28 E3        30.05F
LONE ROCK      NOT AVBL
MINERAL POINT  PTSUNNY   63  32  31 NE5       30.06F
MADISON        PTSUNNY   61  33  35 N7        30.05F
MIDDLETON      PTSUNNY   61  33  34 NW3       30.06F
WATERTOWN      CLOUDY    59  35  40 NE8       30.04F
MONROE         CLOUDY    55  37  50 NE8G16    30.05F
JANESVILLE     CLOUDY    61  34  36 NE10      30.05S
$$

WIZ051-052-058>065-066-070>072-022100-
SOUTHEAST WISCONSIN

CITY           SKY/WX    TMP DP  RH WIND       PRES   REMARKS
MILWAUKEE      PTSUNNY   57  36  45 NE14G21   30.06F
WAUKESHA       MOSUNNY   57  34  41 NE17      30.05F
MILWAUKEE/TIMM SUNNY     59  27  29 NE12G18   30.06F
RACINE         SUNNY     57  35  43 N13       30.07F
BURLINGTON     SUNNY     60  32  34 NE10G20   30.05S
KENOSHA        SUNNY     60  36  40 NE13      30.05F
FOND DU LAC    SUNNY     62  35  36 N9        30.05F
SHEBOYGAN      SUNNY     59  37  44 NE14      30.06S
WEST BEND      CLOUDY    59  34  38 NE14      30.05S
JUNEAU         MOSUNNY   60  33  35 N8        30.06F
$$

LSZ147-162-022100-
LAKE SUPERIOR

STATION/POSITION TIME  TEMP    WIND        PRES    WAVE
                       AIR SEA DIR/SP/G            HT/PER
                 (UTC) (F)     (DEG/KT/KT) (MB)    (FT/S)
W MID LAKE BUOY  1850   39 37  180/  4/  4 1019.6F   0
DEVILS ISLAND    1900   51     120/  6/  7 1018.8F
SAXON HARBOR     1940   45      10/  2/  3 1018.3F
$$

LMZ867-665-643>646-022100-
LAKE MICHIGAN

STATION/POSITION TIME  TEMP    WIND        PRES    WAVE
                       AIR SEA DIR/SP/G            HT/PER
                 (UTC) (F)     (DEG/KT/KT) (MB)    (FT/S)
CHAMBERS ISLAND  1900   55      60/  7/  9 1018.3S
N MID LAKE BUOY  1850   41 40  240/  4/  4 1018.4F   0
NORTHPORT PIER   1900   46     140/  7/  7 1018.3S
KEWAUNEE LAKESHO 1900   46     100/  4/  5 1017.9F
SHEBOYGAN LAKESH 1900   44      10/  6/  6 1019.0F
PORT WASHINGTON  1900   50      50/  5/  7 1019.0F
S MID LAKE BUOY  1850   41 41  350/  4/  6 1018.1R   1/ 3
KENOSHA   LAKESH 1900   46      30/ 14/ 15 1017.9S
$$

TC  - TEMPERATURE IN CELSIUS
VSB - VISIBILITY IN STATUTE MILES
WCI - WIND CHILL INDEX
HX  - HEAT INDEX





USA.gov is the U.S. government's official web portal to all federal, state and local government web resources and services.